Bowling Green, Kentucky, United States (42101)
Lat: 36.99N, Lon: 86.44W
Wx Zone: KYZ071
Local Info
Past Weather Observations for Today

NOTE: This archive is for the closest National Weather Service station to Bowling Green. Information may differ from the station used for current weather conditions.

Click here for Long-term Archive

Time Weather Temperature Dewpoint Humidity Pressure Winds Precip Visibility
12:55
Overcast
36°F / 2°C 18°F / -8°C 48% 30.54 in
(1034 mb)
NE 8.1 mph
(NE 13 kph)
- 10SM
12:35
Overcast
34°F / 1°C 18°F / -8°C 51% 30.57 in
(1035 mb)
NE 6.9 mph
(NE 11 kph)
- 10SM
12:15
Overcast
34°F / 1°C 16°F / -9°C 48% 30.57 in
(1035 mb)
NE 4.6 mph
(NE 7 kph)
- 10SM
11:55
Overcast
34°F / 1°C 18°F / -8°C 51% 30.6 in
(1036 mb)
ENE 5.8 mph
(ENE 9 kph)
- 10SM
11:35
Overcast
32°F / 0°C 16°F / -9°C 51% 30.6 in
(1036 mb)
ENE 6.9 mph
(ENE 11 kph)
- 10SM
11:15
Overcast
32°F / 0°C 16°F / -9°C 51% 30.6 in
(1036 mb)
ENE 9.2 mph
(ENE 15 kph)
- 10SM
10:55
Overcast
32°F / 0°C 16°F / -9°C 51% 30.63 in
(1037 mb)
ENE 8.1 mph
(ENE 13 kph)
- 10SM
10:35
Overcast
30°F / -1°C 16°F / -9°C 55% 30.63 in
(1037 mb)
ENE 5.8 mph
(ENE 9 kph)
- 10SM
10:15
Overcast
30°F / -1°C 14°F / -10°C 51% 30.63 in
(1037 mb)
ENE 8.1 mph
(ENE 13 kph)
- 10SM
09:55
Overcast
28°F / -2°C 14°F / -10°C 55% 30.66 in
(1038 mb)
E 5.8 mph
(E 9 kph)
- 10SM
09:35
Partly Cloudy
28°F / -2°C 14°F / -10°C 55% 30.63 in
(1037 mb)
E 8.1 mph
(E 13 kph)
- 10SM
09:15
Partly Cloudy
27°F / -3°C 12°F / -11°C 54% 30.63 in
(1037 mb)
ENE 9.2 mph
(ENE 15 kph)
- 10SM
08:55
Mostly Cloudy
25°F / -4°C 12°F / -11°C 59% 30.66 in
(1038 mb)
ENE 6.9 mph
(ENE 11 kph)
- 10SM
08:35
Overcast
25°F / -4°C 12°F / -11°C 59% 30.66 in
(1038 mb)
NE 4.6 mph
(NE 7 kph)
- 10SM
08:15
Mostly Cloudy
23°F / -5°C 12°F / -11°C 63% 30.66 in
(1038 mb)
ENE 6.9 mph
(ENE 11 kph)
- 10SM
07:55
Partly Cloudy
23°F / -5°C 12°F / -11°C 63% 30.63 in
(1037 mb)
ENE 9.2 mph
(ENE 15 kph)
- 10SM
07:35
Partly Cloudy
23°F / -5°C 12°F / -11°C 63% 30.63 in
(1037 mb)
ENE 9.2 mph
(ENE 15 kph)
- 10SM
07:15
Partly Cloudy
23°F / -5°C 10°F / -12°C 58% 30.63 in
(1037 mb)
ENE 5.8 mph
(ENE 9 kph)
- 10SM
06:55
Overcast
21°F / -6°C 10°F / -12°C 63% 30.63 in
(1037 mb)
ENE 9.2 mph
(ENE 15 kph)
- 10SM
06:35
Overcast
21°F / -6°C 10°F / -12°C 63% 30.63 in
(1037 mb)
NE 8.1 mph
(NE 13 kph)
- 10SM
06:15
Overcast
21°F / -6°C 10°F / -12°C 63% 30.63 in
(1037 mb)
ENE 6.9 mph
(ENE 11 kph)
- 10SM
05:55
Overcast
21°F / -6°C 10°F / -12°C 63% 30.63 in
(1037 mb)
ENE 6.9 mph
(ENE 11 kph)
- 10SM
05:35
Overcast
21°F / -6°C 10°F / -12°C 63% 30.6 in
(1036 mb)
ENE 6.9 mph
(ENE 11 kph)
- 10SM
05:15
Overcast
21°F / -6°C 10°F / -12°C 63% 30.6 in
(1036 mb)
ENE 6.9 mph
(ENE 11 kph)
- 10SM
04:55
Overcast
21°F / -6°C 10°F / -12°C 63% 30.63 in
(1037 mb)
NE 6.9 mph
(NE 11 kph)
- 10SM
04:35
Overcast
21°F / -6°C 10°F / -12°C 63% 30.6 in
(1036 mb)
ENE 6.9 mph
(ENE 11 kph)
- 10SM
04:15
Overcast
21°F / -6°C 10°F / -12°C 63% 30.6 in
(1036 mb)
ENE 6.9 mph
(ENE 11 kph)
- 10SM
03:55
Overcast
21°F / -6°C 10°F / -12°C 63% 30.6 in
(1036 mb)
NE 6.9 mph
(NE 11 kph)
- 10SM
03:35
Overcast
21°F / -6°C 10°F / -12°C 63% 30.6 in
(1036 mb)
ENE 5.8 mph
(ENE 9 kph)
- 10SM
03:15
Overcast
21°F / -6°C 10°F / -12°C 63% 30.6 in
(1036 mb)
NE 5.8 mph
(NE 9 kph)
- 10SM
02:55
Overcast
21°F / -6°C 10°F / -12°C 63% 30.6 in
(1036 mb)
NE 5.8 mph
(NE 9 kph)
- 10SM
02:35
Overcast
21°F / -6°C 9°F / -13°C 58% 30.6 in
(1036 mb)
ENE 9.2 mph
(ENE 15 kph)
- 10SM
02:15
Overcast
21°F / -6°C 9°F / -13°C 58% 30.6 in
(1036 mb)
ENE 6.9 mph
(ENE 11 kph)
- 10SM
01:55
Overcast
21°F / -6°C 9°F / -13°C 58% 30.6 in
(1036 mb)
ENE 6.9 mph
(ENE 11 kph)
- 10SM
01:35
Overcast
21°F / -6°C 9°F / -13°C 58% 30.6 in
(1036 mb)
ENE 8.1 mph
(ENE 13 kph)
- 10SM
01:15
Mostly Cloudy
21°F / -6°C 9°F / -13°C 58% 30.6 in
(1036 mb)
ENE 11.5 mph
(ENE 19 kph)
- 10SM
00:55
Overcast
21°F / -6°C 9°F / -13°C 58% 30.6 in
(1036 mb)
ENE 9.2 mph
(ENE 15 kph)
- 10SM
00:35
Overcast
21°F / -6°C 10°F / -12°C 63% 30.6 in
(1036 mb)
ENE 8.1 mph
(ENE 13 kph)
- 10SM
00:15
Overcast
21°F / -6°C 10°F / -12°C 63% 30.6 in
(1036 mb)
ENE 8.1 mph
(ENE 13 kph)
- 10SM
Time Weather Temperature Dewpoint Humidity Pressure Winds Precip Visibility


Weather for websites

WeatherForYou.com, LLC is not responsible for any damages or problems caused by this service. Current weather conditions are obtained from the closest station including government and personal stations which may have varying degrees of accuracy. Weather forecasts are derived from the NOAA NDFD. Like all things, this site belongs to Jesus Christ... He just trusts me to maintain it. If you have any questions or comments email webmaster@weatherforyou.com

Copyright © 2015, WeatherForYou.com LLC. All rights reserved.